Location: Artiguedieu
(43.5000°N, 0.5454°E)
Time: 12:44:59
(UTC+00:00)

SR - All Passes

Search period start: 04 August 2021 00:00
Search period end: 14 August 2021 00:00
Orbit: 577 x 877 km, 66.7° (Epoch: 03 August)

Date Brightness Start Highest point End Pass type
(mag) Time Alt. Az. Time Alt. Az. Time Alt. Az.
04 Aug - 04:40:04 10° S 04:45:34 45° ESE 04:50:50 10° NE daylight
04 Aug - 06:22:35 10° WSW 06:27:47 34° NW 06:32:43 10° NNE daylight
04 Aug - 13:20:38 10° NNW 13:25:08 38° NE 13:29:18 10° ESE daylight
04 Aug - 15:03:08 10° NW 15:06:56 25° WSW 15:10:31 10° SSW daylight
05 Aug - 03:51:29 10° SSE 03:56:00 24° ESE 04:00:22 10° ENE visible
05 Aug - 05:32:02 10° SW 05:37:45 59° NW 05:43:10 10° NNE daylight
05 Aug - 07:18:05 10° WNW 07:20:54 14° NW 07:23:39 10° N daylight
05 Aug - 12:31:14 10° N 12:34:58 21° NE 12:38:27 10° E daylight
05 Aug - 14:12:47 10° NW 14:17:23 54° WSW 14:21:39 10° SSE daylight
06 Aug - 03:04:34 10° ESE 03:06:35 12° ESE 03:08:34 10° E visible
06 Aug - 04:42:05 10° SSW 04:47:53 78° ESE 04:53:24 10° NE daylight
06 Aug - 06:26:12 10° W 06:30:31 22° NW 06:34:39 10° N daylight
06 Aug - 11:42:18 10° N 11:44:35 13° NE 11:46:47 10° ENE daylight
06 Aug - 13:22:52 10° NNW 13:27:38 71° ENE 13:32:01 10° SE daylight
06 Aug - 15:07:00 10° WNW 15:08:53 12° WSW 15:10:45 10° SW daylight
07 Aug - 03:52:45 10° S 03:58:11 42° ESE 04:03:20 10° NE visible
07 Aug - 05:35:05 10° WSW 05:40:20 36° NW 05:45:18 10° NNE daylight
07 Aug - 12:33:15 10° NNW 12:37:39 35° NE 12:41:44 10° ESE daylight
07 Aug - 14:15:37 10° NW 14:19:31 27° WSW 14:23:11 10° SSW daylight
08 Aug - 03:04:16 10° SSE 03:08:36 22° ESE 03:12:49 10° ENE visible
08 Aug - 04:44:35 10° SW 04:50:19 62° NW 04:55:44 10° NNE daylight
08 Aug - 06:30:26 10° WNW 06:33:24 14° NW 06:36:18 10° N daylight
08 Aug - 11:43:53 10° N 11:47:28 20° NE 11:50:50 10° E daylight
08 Aug - 13:25:20 10° NW 13:29:57 59° WSW 13:34:14 10° SSE daylight
09 Aug - 02:17:51 10° ESE 02:19:13 11° ESE 02:20:33 10° E visible
09 Aug - 03:54:41 10° SSW 04:00:28 73° ESE 04:05:56 10° NE visible
09 Aug - 05:38:38 10° W 05:43:03 23° NW 05:47:16 10° N daylight
09 Aug - 10:55:04 10° N 10:57:04 12° NNE 10:59:00 10° ENE daylight
09 Aug - 12:35:27 10° NNW 12:40:11 65° ENE 12:44:31 10° SE daylight
09 Aug - 14:19:17 10° WNW 14:21:30 13° WSW 14:23:38 10° SW daylight
10 Aug - 03:05:26 10° S 03:10:47 39° ESE 03:15:51 10° NE visible
10 Aug - 04:47:35 10° WSW 04:52:53 37° NW 04:57:53 10° NNE daylight
10 Aug - 11:45:52 10° NNW 11:50:10 33° NE 11:54:11 10° ESE daylight
10 Aug - 13:28:07 10° NW 13:32:06 29° WSW 13:35:51 10° S daylight
11 Aug - 02:17:05 10° SSE 02:21:13 21° ESE 02:25:14 10° ENE visible
11 Aug - 03:57:09 10° SW 04:02:53 66° WNW 04:08:17 10° NNE visible
11 Aug - 05:42:48 10° WNW 05:45:54 15° NW 05:48:55 10° N daylight
11 Aug - 10:56:33 10° N 10:59:57 19° NE 11:03:12 10° E daylight
11 Aug - 12:37:53 10° NW 12:42:31 64° WSW 12:46:48 10° SSE daylight
12 Aug - 03:07:18 10° SSW 03:13:03 69° ESE 03:18:28 10° NE visible
12 Aug - 04:51:04 10° W 04:55:34 24° NW 04:59:52 10° N daylight
12 Aug - 10:07:52 10° NNE 10:09:32 12° NNE 10:11:10 10° NE daylight
12 Aug - 11:48:02 10° NNW 11:52:42 60° NE 11:57:01 10° SE daylight
12 Aug - 13:31:37 10° WNW 13:34:05 15° WSW 13:36:29 10° SW daylight
13 Aug - 02:18:08 10° S 02:23:22 36° ESE 02:28:20 10° NE visible
13 Aug - 04:00:05 10° WSW 04:05:25 39° NW 04:10:27 10° NNE visible
13 Aug - 10:58:28 10° NNW 11:02:41 31° NE 11:06:37 10° ESE daylight
13 Aug - 12:40:37 10° NW 12:44:40 31° WSW 12:48:29 10° S daylight
